[[{"header":{"parameterUnit":"m.s-1","parameterCategory":1,"la1":30.2991,"la2":30.254,"lo1":-89.0895,"lo2":-89.0444,"dy":0.0017,"dx":0.0017,"nx":28,"ny":28,"refTime":"2024-10-19T09:00:00:Z","depth":0,"parameterNumber":2,"parameterNumberName":"U-component_of_WINDS"},"data":[0,0,0,0,0,0,0,0,0,0,0,0,0,0,0,0,0,0,0,0,0,0,0,0,0,0,0,0,0,0,0,0,0,0,0,0,0,0,0,0,0,0,0,0,0,0,0,0,0,0,0,0,0,0,0,0,0,0,-4.8159,-4.8158,0,-4.8135,-4.8135,-4.8134,-4.8022,-4.802,-4.8017,-4.8015,-4.7992,-4.7993,-4.7995,0,0,0,0,0,0,0,0,0,0,0,0,0,-4.811,-4.8111,-4.8159,-4.8158,-4.8158,-4.8135,-4.8135,-4.8134,-4.8023,-4.802,-4.8016,-4.8013,-4.7991,-4.7993,-4.7995,0,0,0,0,0,0,0,0,0,0,0,0,0,-4.8113,-4.8112,-4.8159,-4.81,-4.8094,-4.8135,-4.8135,-4.8134,-4.8023,-4.802,-4.8016,-4.8012,-4.799,-4.7993,-4.7996,-4.8092,0,0,-4.8004,-4.8005,0,0,0,0,0,0,0,0,-4.8113,-4.8115,-4.8109,-4.8104,-4.8098,-4.8077,-4.8109,-4.812,-4.8024,-4.805,-4.8015,-4.801,-4.8023,-4.8023,-4.8028,-4.8091,-4.809,-4.8004,-4.8006,-4.8007,-4.8008,0,0,0,0,0,0,0,-4.8113,-4.8115,-4.8149,-4.8109,-4.8102,-4.8075,-4.8071,-4.811,-4.8059,-4.8048,-4.804,-4.8038,-4.802,-4.8025,-4.8026,-4.809,-4.8004,-4.8007,-4.8008,-4.801,-4.8233,-4.8237,0,0,0,0,0,0,-4.8121,-4.8116,-4.815,-4.8148,-4.8096,-4.8079,-4.8075,-4.8088,-4.8059,-4.805,-4.8042,-4.8033,-4.8022,-4.8023,-4.8025,-4.8137,-4.8007,-4.801,-4.8011,-4.8229,-4.8234,-4.8239,0,0,0,0,0,0,-4.812,-4.8125,-4.8151,-4.813,-4.8131,-4.8084,-4.81,-4.809,-4.8095,-4.8054,-4.8045,-4.8056,-4.8019,-4.8021,-4.8077,-4.8135,-4.8011,-4.8014,-4.8224,-4.8231,-4.8237,-4.8362,0,0,0,0,0,0,-4.8119,-4.8125,-4.8161,-4.8132,-4.8133,-4.8203,-4.8103,-4.8092,-4.81,-4.8088,-4.8065,-4.8058,-4.8016,-4.8073,-4.8079,-4.8137,-4.8016,-4.8219,-4.8227,-4.8235,-4.8353,-4.8372,-4.8389,0,0,0,0,0,-4.8118,-4.8197,-4.8163,-4.8168,-4.8176,-4.8206,-4.8207,-4.8157,-4.8105,-4.8141,-4.8115,-4.8059,-4.8128,-4.808,-4.8086,-4.8145,-4.8215,-4.8225,-4.8234,-4.8345,-4.8368,-4.8389,0,0,0,0,0,0,-4.8234,-4.8192,-4.8154,-4.8226,-4.822,-4.8187,-4.823,-4.8183,-4.8193,-4.8182,-4.812,-4.8116,-4.8182,-4.8168,-4.8116,-4.8238,-4.8162,-4.8173,-4.8244,-4.8266,-4.8284,-4.8286,-4.8018,0,0,0,0,0,-4.8268,-4.8295,-4.8257,-4.8324,-4.8323,-4.8278,-4.8289,-4.8251,-4.8244,-4.8241,-4.8219,-4.8214,-4.8235,-4.8249,-4.8266,-4.835,-4.8345,-4.8394,-4.8412,-4.8427,-4.8438,-4.8484,-4.8506,-4.8271,-4.8271,-4.827,0,0,-4.8338,-4.8318,-4.8339,-4.8347,-4.8338,-4.8369,-4.8277,-4.8312,-4.8335,-4.8246,-4.8298,-4.8282,-4.8272,-4.8344,-4.8374,-4.8335,-4.8502,-4.8439,-4.8452,-4.8454,-4.8496,-4.8518,-4.8538,-4.8277,-4.8276,-4.8275,0,0,-4.8482,-4.8469,-4.8524,-4.8518,-4.8507,-4.8476,-4.849,-4.8464,-4.8451,-4.8501,-4.8436,-4.8462,-4.8499,-4.8495,-4.8498,-4.8644,-4.8593,-4.8651,-4.8746,-4.8791,-4.881,-4.8826,-4.888,-4.8899,-4.8662,-4.8662,-4.8662,0,-4.857,-4.8614,-4.8559,-4.86,-4.8606,-4.8527,-4.8584,-4.8581,-4.8576,-4.8582,-4.8538,-4.8584,-4.8572,-4.8642,-4.8678,-4.8682,-4.8697,-4.8653,-4.8811,-4.8827,-4.8841,-4.8892,-4.8912,-4.8669,-4.8669,-4.8668,-4.8667,0,-4.8724,-4.8756,-4.8802,-4.88,-4.8811,-4.8859,-4.8813,-4.8831,-4.8794,-4.8768,-4.8822,-4.8805,-4.8818,-4.8832,-4.8795,-4.8898,-4.8874,-4.8822,-4.8745,-4.8872,-4.8919,-4.8937,-4.868,-4.8677,-4.8675,-4.8673,0,0,-4.8939,-4.8908,-4.8926,-4.8925,-4.8907,-4.8931,-4.8977,-4.8989,-4.9007,-4.9007,-4.9045,-4.9079,-4.9031,-4.9035,-4.8997,-4.9037,-4.9156,-4.8979,-4.8978,-4.9014,-4.927,-4.9311,-4.9334,-4.9122,-4.9125,-4.9128,-4.9272,0,-4.9078,-4.9154,-4.9108,-4.9192,-4.9221,-4.9148,-4.9188,-4.9183,-4.9161,-4.9184,-4.9159,-4.9185,-4.9119,-4.9121,-4.9157,-4.9133,-4.9206,-4.9122,-4.9158,-4.916,-4.9164,-4.9358,-4.94,-4.9537,-4.9289,-4.9292,-4.9295,0,-4.9249,-4.9258,-4.9345,-4.9324,-4.9335,-4.9372,-4.9381,-4.9403,-4.9396,-4.9377,-4.9383,-4.9336,-4.9381,-4.9305,-4.9367,-4.9311,-4.9323,-4.9314,-4.9318,-4.932,-4.9236,-4.9367,-4.9579,-4.96,-4.9322,-4.932,-4.9318,0,-4.94,-4.9432,-4.9489,-4.949,-4.9467,-4.9495,-4.9487,-4.9476,-4.9488,-4.9496,-4.9503,-4.9516,-4.9524,-4.9536,-4.9495,-4.9443,-4.9564,-4.9483,-4.9551,-4.9552,-4.958,-4.9579,-4.9798,-4.9586,-4.9586,-4.9585,-4.9585,0,-4.956,-4.9617,-4.9557,-4.9592,-4.9654,-4.96,-4.9664,-4.9647,-4.9639,-4.9671,-4.9608,-4.9639,-4.9582,-4.9608,-4.9576,-4.9634,-4.9637,-4.9624,-4.9615,-4.9631,-4.9633,-4.9638,-4.9628,-4.9591,-4.959,-4.9589,-4.9588,0,-4.9738,-4.97,-4.9758,-4.9732,-4.9726,-4.9774,-4.9751,-4.9784,-4.9758,-4.9799,-4.9806,-4.9767,-4.9794,-4.9754,-4.9777,-4.9755,-4.9835,-4.9811,-4.9838,-4.9831,-4.9902,-4.9897,-5.0134,-5.0163,-4.9931,-4.9933,-4.9935,0,-4.9843,-4.9886,-4.9865,-4.9882,-4.9877,-4.9905,-4.9916,-4.9866,-4.9881,-4.9878,-4.9911,-4.9934,-4.9949,-4.9997,-4.997,-4.9988,-4.9965,-5.0047,-4.9967,-4.9982,-4.9968,-4.9967,-4.9972,-5.0064,-5.0066,-5.0069,-5.007,0,-5.0035,-5.0015,-5.0034,-5.0048,-5.0064,-5.0072,-5.0076,-5.0093,-5.004,-5.0061,-5.0088,-5.0101,-5.0125,-5.0149,-5.016,-5.0152,-5.0104,-5.0096,-5.0113,-5.0129,-5.0144,-5.0139,-4.9884,-5.0091,-5.0089,-5.0087,-5.0086,-5.0085,-5.0181,-5.0216,-5.0207,-5.0231,-5.0229,-5.0235,-5.0264,-5.0243,-5.0266,-5.0281,-5.025,-5.0287,-5.0281,-5.0291,-5.0289,-5.0318,-5.0282,-5.0306,-5.0312,-5.0319,-5.0331,-5.0139,-5.0319,-5.0319,-5.0318,-5.0317,-5.0317,0,-5.037,-5.0362,-5.0385,-5.0393,-5.0413,-5.0365,-5.0367,-5.0387,-5.042,-5.0418,-5.0435,-5.0468,-5.0491,-5.0468,-5.0487,-5.0514,-5.0493,-5.0521,-5.0519,-5.0519,-5.0361,-5.0345,-5.0539,-5.0539,-5.0539,-5.0539,-5.0539,-5.0538,-5.0471,-5.0529,-5.0508,-5.0565,-5.0555,-5.059,-5.0596,-5.0602,-5.06,-5.064,-5.066,-5.0644,-5.0635,-5.0653,-5.0673,-5.0665,-5.0676,-5.0713,-5.0698,-5.0551,-5.053,-5.0509,-5.0494,-5.0715,-5.0716,-5.0854,-5.0855,-5.0856]},{"header":{"parameterUnit":"m.s-1","parameterCategory":1,"la1":30.2991,"la2":30.254,"lo1":-89.0895,"lo2":-89.0444,"dy":0.0017,"dx":0.0017,"nx":28,"ny":28,"refTime":"2024-10-19T09:00:00:Z","depth":0,"parameterNumber":3,"parameterNumberName":"V-component_of_WINDS"},"data":[0,0,0,0,0,0,0,0,0,0,0,0,0,0,0,0,0,0,0,0,0,0,0,0,0,0,0,0,0,0,0,0,0,0,0,0,0,0,0,0,0,0,0,0,0,0,0,0,0,0,0,0,0,0,0,0,0,0,-0.5431,-0.5431,0,-0.5452,-0.5452,-0.5452,-0.5415,-0.5413,-0.5412,-0.5411,-0.5435,-0.5437,-0.5438,0,0,0,0,0,0,0,0,0,0,0,0,0,-0.5362,-0.5363,-0.5431,-0.5432,-0.5432,-0.5452,-0.5452,-0.5452,-0.5415,-0.5413,-0.5412,-0.541,-0.5434,-0.5436,-0.5439,0,0,0,0,0,0,0,0,0,0,0,0,0,-0.5388,-0.5364,-0.5431,-0.5415,-0.5414,-0.5452,-0.5452,-0.5452,-0.5415,-0.5413,-0.5411,-0.541,-0.5434,-0.5436,-0.5439,-0.5493,0,0,-0.5447,-0.5448,0,0,0,0,0,0,0,0,-0.5387,-0.5391,-0.5418,-0.5417,-0.5415,-0.5429,-0.5436,-0.5466,-0.5416,-0.5415,-0.5411,-0.5409,-0.5434,-0.5437,-0.5445,-0.5495,-0.5496,-0.5447,-0.5449,-0.545,-0.5451,0,0,0,0,0,0,0,-0.5385,-0.539,-0.5439,-0.5418,-0.5417,-0.5408,-0.541,-0.5442,-0.5435,-0.5415,-0.5412,-0.5415,-0.5434,-0.5443,-0.5445,-0.5496,-0.5447,-0.545,-0.5451,-0.5452,-0.5592,-0.5594,0,0,0,0,0,0,-0.5385,-0.5389,-0.5439,-0.544,-0.5396,-0.5411,-0.5413,-0.5426,-0.5435,-0.5434,-0.5416,-0.5413,-0.5439,-0.5442,-0.5446,-0.5512,-0.545,-0.5453,-0.5454,-0.559,-0.5592,-0.5594,0,0,0,0,0,0,-0.5384,-0.539,-0.5438,-0.5414,-0.5419,-0.5414,-0.543,-0.5428,-0.5437,-0.5436,-0.5435,-0.5427,-0.5437,-0.5442,-0.5482,-0.5512,-0.5454,-0.5456,-0.5587,-0.559,-0.5593,-0.5642,0,0,0,0,0,0,-0.5382,-0.5389,-0.541,-0.5414,-0.542,-0.5473,-0.5431,-0.5429,-0.5441,-0.5437,-0.5445,-0.5445,-0.5436,-0.5478,-0.5485,-0.5514,-0.5459,-0.5584,-0.5589,-0.5592,-0.5638,-0.5647,-0.5654,0,0,0,0,0,-0.5379,-0.5424,-0.5411,-0.5417,-0.5446,-0.5475,-0.5478,-0.5467,-0.5444,-0.5465,-0.5464,-0.5445,-0.5507,-0.5482,-0.5489,-0.5521,-0.5583,-0.5587,-0.5592,-0.5635,-0.5645,-0.5654,0,0,0,0,0,0,-0.5424,-0.5424,-0.541,-0.5457,-0.5466,-0.5468,-0.5495,-0.5478,-0.5495,-0.5491,-0.5476,-0.5478,-0.5521,-0.5524,-0.5497,-0.5574,-0.5541,-0.5547,-0.5571,-0.5581,-0.5589,-0.5588,-0.5461,0,0,0,0,0,-0.5439,-0.5462,-0.5461,-0.5502,-0.5507,-0.55,-0.5512,-0.5502,-0.5512,-0.5516,-0.5518,-0.5529,-0.555,-0.5565,-0.5585,-0.5637,-0.5639,-0.5662,-0.567,-0.5677,-0.5683,-0.5712,-0.5722,-0.561,-0.5609,-0.5609,0,0,-0.5471,-0.5474,-0.5489,-0.5511,-0.5517,-0.5542,-0.5504,-0.5532,-0.555,-0.552,-0.5558,-0.556,-0.557,-0.5617,-0.5637,-0.5621,-0.5714,-0.5683,-0.5688,-0.5691,-0.5718,-0.5728,-0.5738,-0.5613,-0.5612,-0.5612,0,0,-0.5543,-0.5546,-0.5581,-0.5588,-0.5597,-0.5591,-0.56,-0.5604,-0.5604,-0.5641,-0.5619,-0.5641,-0.5679,-0.5687,-0.5697,-0.577,-0.5753,-0.5776,-0.582,-0.5848,-0.5857,-0.5864,-0.5892,-0.5902,-0.5782,-0.5782,-0.5782,0,-0.5582,-0.5618,-0.5602,-0.5631,-0.5642,-0.5614,-0.565,-0.5657,-0.5672,-0.5681,-0.5661,-0.5708,-0.5713,-0.5761,-0.5779,-0.5787,-0.5797,-0.5777,-0.5856,-0.5864,-0.5871,-0.5898,-0.5908,-0.5785,-0.5785,-0.5785,-0.5784,0,-0.5666,-0.5691,-0.5719,-0.5734,-0.5747,-0.5779,-0.5769,-0.5784,-0.5772,-0.5769,-0.5808,-0.5812,-0.5833,-0.5843,-0.5832,-0.589,-0.588,-0.5858,-0.5825,-0.5885,-0.591,-0.592,-0.579,-0.5788,-0.5788,-0.5787,0,0,-0.577,-0.5773,-0.5784,-0.579,-0.5797,-0.5817,-0.5848,-0.5867,-0.5881,-0.5892,-0.5919,-0.595,-0.593,-0.5941,-0.5931,-0.5955,-0.6014,-0.5931,-0.5931,-0.5948,-0.608,-0.6097,-0.6109,-0.6002,-0.6003,-0.6005,-0.6079,0,-0.5842,-0.5895,-0.5881,-0.5935,-0.5958,-0.5931,-0.5958,-0.5965,-0.5963,-0.5983,-0.598,-0.6003,-0.5974,-0.5981,-0.6003,-0.6002,-0.6041,-0.5996,-0.6028,-0.603,-0.6029,-0.6122,-0.6141,-0.6211,-0.6089,-0.609,-0.6091,0,-0.5935,-0.5948,-0.6004,-0.6006,-0.6016,-0.604,-0.6057,-0.6075,-0.6083,-0.608,-0.6091,-0.6075,-0.6107,-0.6071,-0.6115,-0.6085,-0.6097,-0.6098,-0.61,-0.6105,-0.6066,-0.6131,-0.6233,-0.6244,-0.6106,-0.6105,-0.6104,0,-0.6007,-0.6039,-0.6076,-0.6082,-0.6086,-0.6104,-0.6106,-0.6112,-0.6124,-0.6138,-0.6146,-0.6164,-0.6174,-0.6189,-0.6179,-0.6153,-0.6225,-0.6188,-0.6224,-0.6225,-0.6243,-0.6242,-0.635,-0.6246,-0.6246,-0.6246,-0.6246,0,-0.6091,-0.6127,-0.6109,-0.6132,-0.6171,-0.6154,-0.6194,-0.6193,-0.6198,-0.6221,-0.6198,-0.622,-0.6204,-0.6226,-0.6217,-0.6256,-0.626,-0.6259,-0.6257,-0.6263,-0.6263,-0.6273,-0.6269,-0.6249,-0.6248,-0.6247,-0.6247,0,-0.618,-0.6169,-0.6208,-0.6208,-0.6208,-0.6237,-0.6237,-0.6259,-0.6253,-0.6283,-0.6289,-0.6281,-0.6305,-0.6295,-0.6321,-0.6315,-0.6365,-0.6355,-0.6363,-0.6361,-0.6399,-0.6396,-0.6518,-0.6534,-0.6418,-0.6419,-0.642,0,-0.6236,-0.6262,-0.6264,-0.6277,-0.6281,-0.6303,-0.6315,-0.6298,-0.6312,-0.6322,-0.6343,-0.6364,-0.6381,-0.642,-0.6418,-0.6437,-0.6429,-0.647,-0.6432,-0.6437,-0.6432,-0.6432,-0.6435,-0.6479,-0.648,-0.6482,-0.6482,0,-0.6336,-0.6329,-0.6347,-0.6363,-0.6377,-0.6389,-0.6399,-0.6412,-0.6395,-0.6412,-0.6435,-0.6448,-0.6473,-0.6495,-0.6512,-0.6515,-0.6497,-0.6494,-0.6504,-0.6511,-0.6515,-0.6516,-0.6386,-0.6492,-0.6491,-0.649,-0.649,-0.6489,-0.6412,-0.6434,-0.6439,-0.646,-0.6465,-0.6474,-0.6495,-0.6491,-0.651,-0.6529,-0.6517,-0.6545,-0.6552,-0.6572,-0.6578,-0.66,-0.6584,-0.6598,-0.6602,-0.6606,-0.6612,-0.6509,-0.6603,-0.6602,-0.6602,-0.6602,-0.6602,0,-0.6513,-0.6514,-0.6533,-0.6547,-0.6563,-0.6542,-0.6551,-0.6567,-0.6591,-0.6598,-0.6614,-0.6642,-0.6662,-0.666,-0.668,-0.6698,-0.669,-0.6704,-0.6704,-0.6705,-0.6624,-0.6615,-0.671,-0.671,-0.671,-0.671,-0.671,-0.671,-0.6568,-0.6606,-0.6599,-0.6639,-0.6639,-0.6666,-0.6673,-0.6682,-0.6687,-0.6718,-0.6735,-0.6733,-0.6736,-0.6756,-0.6774,-0.6773,-0.6782,-0.68,-0.6796,-0.6721,-0.671,-0.67,-0.6692,-0.6801,-0.6801,-0.6875,-0.6876,-0.6876]}]]